• In Czech Republic
  • List of Countries
  • For 7 days
  • Water Temperature
  • Satellite Maps
  • Weather Map
  • Weather Widgets
  • user-avatar
    Login

    Hourly Weather Kassino

    Today, 22 September, Saturday

    Time Temperature Precipitation Wind Pressure Humidity
    00:00 +17°C° 0 mm 2 mps 747 mmHg 76%
    01:00 +17°C° 0 mm 2 mps 747 mmHg 77%
    02:00 +17°C° 0 mm 2 mps 747 mmHg 74%
    03:00 +16°C° 0 mm 2 mps 747 mmHg 74%
    04:00 +16°C° 0 mm 2 mps 746 mmHg 74%
    05:00 +16°C° 0 mm 2 mps 746 mmHg 74%
    06:00 +17°C° 0 mm 3 mps 746 mmHg 71%
    07:00 +19°C° 0 mm 3 mps 746 mmHg 68%
    08:00 +20°C° 0 mm 4 mps 746 mmHg 63%
    09:00 +21°C° 0 mm 4 mps 746 mmHg 59%
    10:00 +23°C° 0 mm 5 mps 746 mmHg 56%
    11:00 +25°C° 0 mm 5 mps 745 mmHg 52%
    12:00 +26°C° 0 mm 5 mps 745 mmHg 51%
    13:00 +27°C° 0 mm 6 mps 745 mmHg 49%
    14:00 +27°C° 0 mm 6 mps 744 mmHg 47%
    15:00 +26°C° 0 mm 5 mps 744 mmHg 52%
    16:00 +25°C° 0 mm 4 mps 743 mmHg 57%
    17:00 +22°C° 0 mm 3 mps 742 mmHg 62%
    18:00 +22°C° 0 mm 4 mps 742 mmHg 62%
    19:00 +21°C° 0 mm 4 mps 742 mmHg 62%
    20:00 +20°C° 0 mm 4 mps 741 mmHg 62%
    21:00 +20°C° 0 mm 5 mps 741 mmHg 60%
    22:00 +20°C° 0 mm 5 mps 741 mmHg 59%
    23:00 +19°C° 0 mm 5 mps 740 mmHg 57%

    Tomorrow, 23 September, Sunday

    Time Temperature Precipitation Wind Pressure Humidity
    00:00 +19°C° 0 mm 5 mps 740 mmHg 59%
    01:00 +18°C° 0 mm 4 mps 740 mmHg 61%
    02:00 +17°C° 0 mm 4 mps 740 mmHg 62%
    03:00 +15°C° 0.4 mm 4 mps 739 mmHg 69%
    04:00 +14°C° 0.4 mm 5 mps 739 mmHg 75%
    05:00 +13°C° 0.4 mm 5 mps 739 mmHg 81%
    06:00 +12°C° 0.9 mm 5 mps 739 mmHg 83%
    07:00 +10°C° 0.9 mm 5 mps 740 mmHg 85%
    08:00 +8°C° 0.9 mm 6 mps 740 mmHg 87%
    09:00 +9°C° 0.2 mm 5 mps 740 mmHg 86%
    10:00 +9°C° 0.2 mm 5 mps 741 mmHg 84%
    11:00 +11°C° 0.2 mm 4 mps 741 mmHg 82%
    12:00 +11°C° 0 mm 4 mps 742 mmHg 80%
    13:00 +12°C° 0 mm 4 mps 742 mmHg 78%
    14:00 +12°C° 0 mm 4 mps 742 mmHg 75%
    15:00 +12°C° 0 mm 4 mps 742 mmHg 76%
    16:00 +12°C° 0 mm 3 mps 742 mmHg 76%
    17:00 +12°C° 0 mm 3 mps 742 mmHg 76%
    18:00 +11°C° 0.1 mm 3 mps 742 mmHg 80%
    19:00 +10°C° 0.1 mm 3 mps 742 mmHg 83%
    20:00 +9°C° 0.1 mm 3 mps 742 mmHg 87%
    21:00 +9°C° 0 mm 3 mps 742 mmHg 88%
    22:00 +9°C° 0 mm 3 mps 742 mmHg 89%
    23:00 +8°C° 0 mm 3 mps 742 mmHg 90%

    Day after tomorrow, 24 September, Monday

    Time Temperature Precipitation Wind Pressure Humidity
    00:00 +8°C° 0 mm 3 mps 742 mmHg 91%
    01:00 +8°C° 0 mm 3 mps 742 mmHg 91%
    02:00 +7°C° 0 mm 3 mps 742 mmHg 92%
    03:00 +7°C° 0 mm 3 mps 742 mmHg 91%
    04:00 +8°C° 0 mm 3 mps 741 mmHg 90%
    05:00 +8°C° 0 mm 3 mps 741 mmHg 89%
    06:00 +9°C° 0 mm 3 mps 741 mmHg 84%
    07:00 +10°C° 0 mm 4 mps 741 mmHg 80%
    08:00 +10°C° 0 mm 5 mps 740 mmHg 76%
    09:00 +10°C° 0.3 mm 5 mps 740 mmHg 76%
    10:00 +10°C° 0.3 mm 5 mps 739 mmHg 75%
    11:00 +11°C° 0.3 mm 6 mps 739 mmHg 74%
    12:00 +10°C° 1.2 mm 7 mps 738 mmHg 78%
    13:00 +9°C° 1.2 mm 8 mps 737 mmHg 82%
    14:00 +9°C° 1.2 mm 8 mps 736 mmHg 85%
    15:00 +8°C° 2.4 mm 9 mps 734 mmHg 87%
    16:00 +8°C° 2.4 mm 9 mps 733 mmHg 88%
    17:00 +10°C° 2.4 mm 9 mps 731 mmHg 89%
    18:00 +10°C° 1.1 mm 9 mps 730 mmHg 89%
    19:00 +11°C° 1.1 mm 9 mps 728 mmHg 88%
    20:00 +11°C° 1.1 mm 10 mps 727 mmHg 88%
    21:00 +9°C° 0.1 mm 10 mps 727 mmHg 86%
    22:00 +8°C° 0.1 mm 11 mps 727 mmHg 84%
    23:00 +7°C° 0.1 mm 11 mps 726 mmHg 82%

    25 September, Tuesday

    Time Temperature Precipitation Wind Pressure Humidity
    00:00 +7°C° 0.1 mm 11 mps 727 mmHg 81%
    01:00 +7°C° 0.1 mm 11 mps 728 mmHg 81%
    02:00 +7°C° 0.1 mm 11 mps 728 mmHg 80%
    03:00 +7°C° 0.1 mm 11 mps 729 mmHg 80%
    04:00 +7°C° 0.1 mm 10 mps 730 mmHg 80%
    05:00 +7°C° 0.1 mm 10 mps 731 mmHg 80%
    06:00 +6°C° 0.1 mm 10 mps 731 mmHg 80%
    07:00 +6°C° 0.1 mm 10 mps 732 mmHg 80%
    08:00 +6°C° 0.1 mm 10 mps 733 mmHg 79%
    09:00 +6°C° 0.1 mm 9 mps 734 mmHg 78%
    10:00 +6°C° 0.1 mm 9 mps 735 mmHg 77%
    11:00 +6°C° 0.1 mm 9 mps 736 mmHg 76%
    12:00 +6°C° 0.2 mm 9 mps 737 mmHg 76%
    13:00 +6°C° 0.2 mm 9 mps 738 mmHg 76%
    14:00 +6°C° 0.2 mm 8 mps 739 mmHg 75%
    15:00 +6°C° 0.2 mm 8 mps 740 mmHg 76%
    16:00 +5°C° 0.2 mm 7 mps 740 mmHg 76%
    17:00 +5°C° 0.2 mm 7 mps 741 mmHg 76%
    18:00 +5°C° 0.1 mm 6 mps 742 mmHg 76%
    19:00 +5°C° 0.1 mm 6 mps 742 mmHg 76%
    20:00 +6°C° 0.1 mm 5 mps 743 mmHg 76%
    21:00 +5°C° 0 mm 5 mps 744 mmHg 76%
    22:00 +5°C° 0 mm 5 mps 744 mmHg 75%
    23:00 +5°C° 0 mm 5 mps 745 mmHg 74%

    26 September, Wednesday

    Time Temperature Precipitation Wind Pressure Humidity
    00:00 +5°C° 0 mm 5 mps 745 mmHg 76%
    01:00 +5°C° 0 mm 5 mps 746 mmHg 78%
    02:00 +3°C° 0 mm 5 mps 747 mmHg 79%
    03:00 +4°C° 0 mm 4 mps 747 mmHg 81%
    04:00 +3°C° 0 mm 4 mps 748 mmHg 83%
    05:00 +1°C° 0 mm 4 mps 748 mmHg 85%
    06:00 +3°C° 0 mm 4 mps 749 mmHg 79%
    07:00 +4°C° 0 mm 4 mps 749 mmHg 74%
    08:00 +3°C° 0 mm 5 mps 749 mmHg 68%
    09:00 +6°C° 0 mm 5 mps 749 mmHg 65%
    10:00 +7°C° 0 mm 5 mps 749 mmHg 61%
    11:00 +9°C° 0 mm 6 mps 750 mmHg 57%
    12:00 +9°C° 0 mm 6 mps 749 mmHg 56%
    13:00 +10°C° 0 mm 6 mps 749 mmHg 55%
    14:00 +11°C° 0 mm 6 mps 748 mmHg 53%
    15:00 +10°C° 0 mm 6 mps 748 mmHg 58%
    16:00 +10°C° 0 mm 5 mps 748 mmHg 63%
    17:00 +10°C° 0 mm 4 mps 748 mmHg 68%
    18:00 +9°C° 0 mm 5 mps 748 mmHg 72%
    19:00 +8°C° 0 mm 5 mps 748 mmHg 75%
    20:00 +8°C° 0 mm 6 mps 748 mmHg 79%
    21:00 +8°C° 0.1 mm 6 mps 747 mmHg 79%
    22:00 +8°C° 0.1 mm 7 mps 747 mmHg 80%
    23:00 +6°C° 0.1 mm 7 mps 746 mmHg 80%

    27 September, Thursday

    Time Temperature Precipitation Wind Pressure Humidity
    00:00 +6°C° 0.1 mm 7 mps 746 mmHg 78%
    01:00 +6°C° 0.1 mm 7 mps 745 mmHg 76%
    02:00 +5°C° 0.1 mm 8 mps 745 mmHg 74%
    03:00 +5°C° 0 mm 8 mps 744 mmHg 71%
    04:00 +5°C° 0 mm 8 mps 744 mmHg 69%
    05:00 +5°C° 0 mm 8 mps 743 mmHg 67%
    06:00 +6°C° 0 mm 9 mps 743 mmHg 68%
    07:00 +6°C° 0 mm 9 mps 742 mmHg 68%
    08:00 +6°C° 0 mm 9 mps 742 mmHg 69%
    09:00 +6°C° 0.1 mm 9 mps 741 mmHg 71%
    10:00 +7°C° 0.1 mm 9 mps 741 mmHg 73%
    11:00 +7°C° 0.1 mm 9 mps 741 mmHg 75%
    12:00 +7°C° 0.3 mm 9 mps 740 mmHg 77%
    13:00 +7°C° 0.3 mm 9 mps 739 mmHg 79%
    14:00 +7°C° 0.3 mm 9 mps 739 mmHg 81%
    15:00 +7°C° 0.4 mm 9 mps 739 mmHg 82%
    16:00 +8°C° 0.4 mm 9 mps 738 mmHg 82%
    17:00 +8°C° 0.4 mm 9 mps 738 mmHg 82%
    18:00 +9°C° 0 mm 8 mps 738 mmHg 83%
    19:00 +9°C° 0 mm 8 mps 738 mmHg 84%
    20:00 +10°C° 0 mm 8 mps 738 mmHg 85%
    21:00 +10°C° 0.1 mm 7 mps 738 mmHg 86%
    22:00 +10°C° 0.1 mm 7 mps 738 mmHg 86%
    23:00 +10°C° 0.1 mm 6 mps 738 mmHg 87%
    Show more